Regional Weather Roundup
Issued by NWS

Home | Current Version | Previous Version | Graphics & Text | Print | Product List | Glossary On
Versions: 1 2 3 4 5 6 7 8 9 10 11 12 13 14 15 16 17 18 19 20 21 22 23 24 25 26 27 28 29 30 31 32 33 34 35 36 37 38 39 40 41 42 43 44 45 46 47 48 49 50
000
ASUS44 KMEG 161800
RWRTN
TENNESSEE HOURLY STATE WEATHER ROUNDUP
NATIONAL WEATHER SERVICE MEMPHIS TN
1200 PM CST MON JAN 16 2017

TNZ002-004-019-021-049-052-054-088>092-161900-
WEST TENNESSEE

CITY           SKY/WX    TMP DP  RH WIND       PRES   REMARKS
MEMPHIS INTL   CLOUDY    65  61  87 S12G21    30.07F
NWS MEMPHIS      N/A     64 N/A N/A MISG        N/A
JACKSON        CLOUDY    68  58  70 S13G18    30.11F
DYERSBURG      CLOUDY    63  57  82 S8        30.08F
UNION CITY     MOSUNNY   63  63 100 S13       30.08F
PARIS          CLOUDY    61  55  82 CALM      30.12F
$$

TNZ008-025-027-028-033-062-065-066-161900-
NORTH MIDDLE TENNESSEE

CITY           SKY/WX    TMP DP  RH WIND       PRES   REMARKS
NASHVILLE      CLOUDY    70  53  54 S9        30.18F
CLARKSVILLE    PTSUNNY   60  53  77 SE8       30.15F
SMYRNA         PTSUNNY   71  54  54 S7        30.19F
CROSSVILLE     CLOUDY    58  49  72 S8        30.27F
$$

TNZ061-075-076-078-094-096-097-161900-
SOUTH MIDDLE TENNESSEE

CITY           SKY/WX    TMP DP  RH WIND       PRES   REMARKS
TULLAHOMA      MOSUNNY   68  50  52 S13       30.21F
WINCHESTER     PTSUNNY   68  52  56 S18       30.21F
COLUMBIA       SUNNY     70  59  68 S13       30.16F
SHELBYVILLE    PTSUNNY   72  54  53 S12       30.20F
$$

TNZ017-018-042-046-047-161900-
NORTHEAST TENNESSEE

CITY           SKY/WX    TMP DP  RH WIND       PRES   REMARKS
TRI CITIES     PTSUNNY   65  52  62 SW7       30.27F
$$

TNZ012-013-036-069-073-074-161900-
CENTRAL EAST TENNESSEE

CITY           SKY/WX    TMP DP  RH WIND       PRES   REMARKS
KNOXVILLE      CLOUDY    60  54  80 W3        30.27F
OAK RIDGE      CLOUDY    60  53  77 CALM      30.29F
GATLINBURG     CLOUDY    57  55  94 NW3       30.27F
$$

TNZ083-085-099-161900-
SOUTHEAST TENNESSEE

CITY           SKY/WX    TMP DP  RH WIND       PRES   REMARKS
CHATTANOOGA    CLOUDY    60  51  72 CALM      30.27F
$$

SKY/WX REPORTED AS FAIR MEANS FEW OR NO CLOUDS BELOW
12 THOUSAND FEET.





USA.gov is the U.S. government's official web portal to all federal, state and local government web resources and services.